Location: Unspecified
(50.7693°N, 0.0000°E)
Time: 05:01:28
(UTC+00:00)

Transit 4A - Pass Details

Date: 26 June 2019
Orbit: 862 x 982 km, 66.8° (Epoch: 23 July)

Event Time Altitude Azimuth Distance (km) Brightness Sun altitude
Rises 11:28:06 0° 296° (WNW) 3,686 10.8 61.8°
Reaches altitude 10° 11:31:33 10° 314° (NW) 2,744 10.2 61.9°
Maximum altitude 11:35:58 19° 357° (N) 2,164 9.8 62.1°
Drops below altitude 10° 11:40:24 10° 41° (NE) 2,738 10.3 62.2°
Sets 11:43:50 0° 59° (ENE) 3,674 10.9 62.3°
